VHEMD YMEN-YWSL

Flight info

Callsign VHEMD
Flight time 0h 58m
Altitude 3500
Route DSN GMH NRW YNNG DRN YLTV FYN
Aircraft P28A/L-SDFG/C

Departure

Time 2026-04-17 09:18
Airport Melbourne Essendon Airport (YMEN)

Arrival

Time 2026-04-17 10:17
Airport West Sale Airport (YWSL)
Time Latitude Longitude Altitude Speed Heading
2026-04-17 08:59 -37.72128 144.89874 280 ft 0 kts 267°
2026-04-17 09:09 -37.72129 144.89861 280 ft 2 kts 265°
2026-04-17 09:10 -37.72154 144.89850 280 ft 4 kts 177°
2026-04-17 09:10 -37.72182 144.89879 279 ft 7 kts 76°
2026-04-17 09:10 -37.72164 144.89941 279 ft 7 kts 83°
2026-04-17 09:11 -37.72162 144.89986 279 ft 0 kts 86°
2026-04-17 09:11 -37.72162 144.89987 279 ft 0 kts 86°
2026-04-17 09:15 -37.72161 144.90024 278 ft 8 kts 86°
2026-04-17 09:15 -37.72172 144.90080 277 ft 5 kts 165°
2026-04-17 09:16 -37.72190 144.90082 276 ft 0 kts 178°
2026-04-17 09:17 -37.72241 144.90085 274 ft 32 kts 175°
2026-04-17 09:17 -37.72625 144.90103 354 ft 66 kts 177°
2026-04-17 09:17 -37.73126 144.90126 534 ft 79 kts 178°
2026-04-17 09:18 -37.73706 144.90212 725 ft 91 kts 160°
2026-04-17 09:18 -37.74155 144.90845 870 ft 107 kts 116°
2026-04-17 09:18 -37.74290 144.91803 1000 ft 114 kts 101°
2026-04-17 09:18 -37.74330 144.92807 1133 ft 114 kts 97°
2026-04-17 09:19 -37.74323 144.93797 1262 ft 112 kts 95°
2026-04-17 09:19 -37.74291 144.94788 1378 ft 113 kts 94°
2026-04-17 09:19 -37.74246 144.95787 1457 ft 116 kts 93°
2026-04-17 09:19 -37.74205 144.96831 1486 ft 119 kts 101°
2026-04-17 09:20 -37.74339 144.97871 1483 ft 121 kts 106°
2026-04-17 09:20 -37.74467 144.98923 1483 ft 120 kts 105°
2026-04-17 09:20 -37.74583 144.99948 1479 ft 118 kts 105°
2026-04-17 09:20 -37.74697 145.00978 1479 ft 118 kts 105°
2026-04-17 09:21 -37.74809 145.02008 1477 ft 118 kts 105°
2026-04-17 09:21 -37.74921 145.03050 1477 ft 121 kts 105°
2026-04-17 09:21 -37.75066 145.04106 1477 ft 121 kts 115°
2026-04-17 09:21 -37.75400 145.05080 1481 ft 120 kts 122°
2026-04-17 09:22 -37.75731 145.06056 1477 ft 122 kts 115°
2026-04-17 09:22 -37.75961 145.07097 1475 ft 123 kts 113°
2026-04-17 09:22 -37.76216 145.08107 1474 ft 119 kts 124°
2026-04-17 09:22 -37.76643 145.08992 1475 ft 116 kts 129°
2026-04-17 09:23 -37.77074 145.09859 1475 ft 116 kts 130°
2026-04-17 09:23 -37.77508 145.10707 1478 ft 116 kts 129°
2026-04-17 09:23 -37.77951 145.11572 1484 ft 117 kts 130°
2026-04-17 09:23 -37.78372 145.12460 1472 ft 120 kts 120°
2026-04-17 09:24 -37.78609 145.13481 1464 ft 121 kts 112°
2026-04-17 09:24 -37.78772 145.14526 1470 ft 122 kts 105°
2026-04-17 09:24 -37.78910 145.15585 1473 ft 122 kts 106°
2026-04-17 09:24 -37.79050 145.16653 1474 ft 122 kts 106°
2026-04-17 09:25 -37.79324 145.17631 1474 ft 117 kts 127°
2026-04-17 09:25 -37.79736 145.18527 1468 ft 117 kts 128°
2026-04-17 09:25 -37.80143 145.19408 1468 ft 117 kts 126°
2026-04-17 09:25 -37.80532 145.20323 1463 ft 117 kts 126°
2026-04-17 09:26 -37.80999 145.21126 1470 ft 111 kts 144°
2026-04-17 09:26 -37.81688 145.21451 1466 ft 105 kts 179°
2026-04-17 09:26 -37.82418 145.21492 1472 ft 105 kts 181°
2026-04-17 09:26 -37.83155 145.21523 1474 ft 106 kts 182°
2026-04-17 09:27 -37.83903 145.21545 1474 ft 106 kts 182°
2026-04-17 09:27 -37.84642 145.21544 1469 ft 106 kts 190°
2026-04-17 09:27 -37.85351 145.21343 1474 ft 105 kts 195°
2026-04-17 09:27 -37.86068 145.21120 1472 ft 106 kts 195°
2026-04-17 09:28 -37.86809 145.21069 1472 ft 107 kts 181°
2026-04-17 09:28 -37.87563 145.21115 1475 ft 107 kts 181°
2026-04-17 09:28 -37.88306 145.21164 1474 ft 107 kts 181°
2026-04-17 09:28 -37.89061 145.21211 1477 ft 107 kts 181°
2026-04-17 09:29 -37.89803 145.21260 1475 ft 107 kts 181°
2026-04-17 09:29 -37.90554 145.21310 1478 ft 107 kts 182°
2026-04-17 09:29 -37.91291 145.21321 1473 ft 105 kts 190°
2026-04-17 09:29 -37.92008 145.21123 1475 ft 105 kts 195°
2026-04-17 09:30 -37.92718 145.20912 1475 ft 105 kts 195°
2026-04-17 09:30 -37.93430 145.20700 1472 ft 105 kts 195°
2026-04-17 09:30 -37.94142 145.20489 1472 ft 105 kts 195°
2026-04-17 09:30 -37.94845 145.20230 1476 ft 105 kts 200°
2026-04-17 09:31 -37.95546 145.19931 1478 ft 105 kts 200°
2026-04-17 09:31 -37.96249 145.19653 1475 ft 106 kts 192°
2026-04-17 09:31 -37.96955 145.19890 1552 ft 106 kts 157°
2026-04-17 09:31 -37.97577 145.20352 1652 ft 103 kts 154°
2026-04-17 09:32 -37.98172 145.20850 1755 ft 101 kts 152°
2026-04-17 09:32 -37.98742 145.21358 1854 ft 99 kts 151°
2026-04-17 09:32 -37.99284 145.21925 1959 ft 102 kts 146°
2026-04-17 09:32 -37.99810 145.22530 2059 ft 103 kts 146°
2026-04-17 09:33 -38.00343 145.23149 2159 ft 103 kts 146°
2026-04-17 09:33 -38.00826 145.23825 2254 ft 109 kts 124°
2026-04-17 09:33 -38.01028 145.24776 2356 ft 113 kts 109°
2026-04-17 09:33 -38.01176 145.25768 2459 ft 113 kts 108°
2026-04-17 09:34 -38.01318 145.26755 2562 ft 114 kts 108°
2026-04-17 09:34 -38.01456 145.27740 2665 ft 114 kts 107°
2026-04-17 09:34 -38.01593 145.28726 2764 ft 114 kts 107°
2026-04-17 09:34 -38.01742 145.29718 2859 ft 112 kts 114°
2026-04-17 09:35 -38.02132 145.30539 2956 ft 107 kts 133°
2026-04-17 09:35 -38.02572 145.31303 3053 ft 107 kts 134°
2026-04-17 09:35 -38.03013 145.32074 3152 ft 108 kts 133°
2026-04-17 09:35 -38.03433 145.32854 3249 ft 108 kts 132°
2026-04-17 09:36 -38.03860 145.33646 3327 ft 109 kts 133°
2026-04-17 09:36 -38.04293 145.34448 3403 ft 110 kts 133°
2026-04-17 09:36 -38.04710 145.35283 3476 ft 112 kts 130°
2026-04-17 09:36 -38.05128 145.36133 3497 ft 115 kts 130°
2026-04-17 09:37 -38.05563 145.37007 3495 ft 118 kts 130°
2026-04-17 09:37 -38.06010 145.37900 3496 ft 120 kts 130°
2026-04-17 09:37 -38.06309 145.38927 3494 ft 126 kts 113°
2026-04-17 09:37 -38.06536 145.39993 3492 ft 126 kts 113°
2026-04-17 09:38 -38.06759 145.41071 3492 ft 127 kts 112°
2026-04-17 09:38 -38.06984 145.42166 3493 ft 127 kts 112°
2026-04-17 09:38 -38.07204 145.43254 3494 ft 127 kts 112°
2026-04-17 09:38 -38.07422 145.44334 3493 ft 128 kts 111°
2026-04-17 09:39 -38.07641 145.45427 3492 ft 128 kts 111°
2026-04-17 09:39 -38.07863 145.46544 3491 ft 129 kts 111°
2026-04-17 09:39 -38.08081 145.47641 3491 ft 129 kts 111°
2026-04-17 09:39 -38.08301 145.48749 3492 ft 129 kts 111°
2026-04-17 09:40 -38.08520 145.49852 3492 ft 129 kts 111°
2026-04-17 09:40 -38.08732 145.50949 3492 ft 130 kts 108°
2026-04-17 09:40 -38.08591 145.52109 3486 ft 138 kts 68°
2026-04-17 09:40 -38.08110 145.53166 3490 ft 138 kts 63°
2026-04-17 09:41 -38.07719 145.54262 3486 ft 135 kts 86°
2026-04-17 09:41 -38.07637 145.55432 3491 ft 133 kts 92°
2026-04-17 09:41 -38.07579 145.56601 3493 ft 133 kts 94°
2026-04-17 09:41 -38.07523 145.57788 3492 ft 133 kts 94°
2026-04-17 09:42 -38.07472 145.58962 3490 ft 133 kts 94°
2026-04-17 09:42 -38.07422 145.60132 3489 ft 133 kts 94°
2026-04-17 09:42 -38.07372 145.61320 3486 ft 134 kts 93°
2026-04-17 09:42 -38.07325 145.62491 3486 ft 134 kts 93°
2026-04-17 09:43 -38.07522 145.63591 3484 ft 125 kts 127°
2026-04-17 09:43 -38.07974 145.64531 3485 ft 124 kts 129°
2026-04-17 09:43 -38.08427 145.65459 3484 ft 125 kts 129°
2026-04-17 09:43 -38.08885 145.66403 3483 ft 125 kts 129°
2026-04-17 09:44 -38.09309 145.67355 3479 ft 128 kts 117°
2026-04-17 09:44 -38.09516 145.68475 3487 ft 129 kts 108°
2026-04-17 09:44 -38.09692 145.69588 3488 ft 130 kts 108°
2026-04-17 09:44 -38.09870 145.70726 3487 ft 130 kts 108°
2026-04-17 09:45 -38.10047 145.71857 3485 ft 130 kts 108°
2026-04-17 09:45 -38.10222 145.72981 3486 ft 131 kts 108°
2026-04-17 09:45 -38.10406 145.74129 3484 ft 130 kts 112°
2026-04-17 09:45 -38.10783 145.75140 3483 ft 126 kts 125°
2026-04-17 09:46 -38.11199 145.76119 3482 ft 127 kts 126°
2026-04-17 09:46 -38.11617 145.77104 3483 ft 127 kts 125°
2026-04-17 09:46 -38.12041 145.78104 3483 ft 127 kts 126°
2026-04-17 09:46 -38.12394 145.79138 3484 ft 130 kts 112°
2026-04-17 09:47 -38.12637 145.80249 3487 ft 131 kts 111°
2026-04-17 09:47 -38.12878 145.81372 3485 ft 131 kts 112°
2026-04-17 09:47 -38.13117 145.82484 3485 ft 132 kts 112°
2026-04-17 09:47 -38.13356 145.83603 3481 ft 132 kts 111°
2026-04-17 09:48 -38.13600 145.84740 3481 ft 132 kts 112°
2026-04-17 09:48 -38.13874 145.85832 3483 ft 131 kts 115°
2026-04-17 09:48 -38.14157 145.86929 3481 ft 130 kts 115°
2026-04-17 09:48 -38.14442 145.88036 3483 ft 131 kts 116°
2026-04-17 09:49 -38.14723 145.89123 3485 ft 130 kts 115°
2026-04-17 09:49 -38.15081 145.90186 3483 ft 128 kts 124°
2026-04-17 09:49 -38.15472 145.91213 3481 ft 129 kts 123°
2026-04-17 09:49 -38.15859 145.92230 3484 ft 129 kts 123°
2026-04-17 09:50 -38.16248 145.93256 3481 ft 129 kts 123°
2026-04-17 09:50 -38.16642 145.94293 3481 ft 129 kts 123°
2026-04-17 09:50 -38.17030 145.95322 3483 ft 129 kts 123°
2026-04-17 09:50 -38.17430 145.96347 3481 ft 128 kts 125°
2026-04-17 09:51 -38.17858 145.97342 3476 ft 128 kts 126°
2026-04-17 09:51 -38.18290 145.98343 3474 ft 128 kts 126°
2026-04-17 09:51 -38.18717 145.99339 3474 ft 128 kts 126°
2026-04-17 09:51 -38.19081 146.00383 3472 ft 130 kts 119°
2026-04-17 09:52 -38.19421 146.01453 3472 ft 130 kts 119°
2026-04-17 09:52 -38.19759 146.02521 3474 ft 130 kts 119°
2026-04-17 09:52 -38.20095 146.03584 3476 ft 130 kts 119°
2026-04-17 09:52 -38.20433 146.04651 3477 ft 130 kts 119°
2026-04-17 09:53 -38.20619 146.05801 3476 ft 135 kts 103°
2026-04-17 09:53 -38.20716 146.06996 3473 ft 135 kts 102°
2026-04-17 09:53 -38.20808 146.08183 3472 ft 135 kts 103°
2026-04-17 09:53 -38.20902 146.09367 3469 ft 135 kts 102°
2026-04-17 09:54 -38.20995 146.10562 3473 ft 135 kts 102°
2026-04-17 09:54 -38.21089 146.11754 3432 ft 136 kts 102°
2026-04-17 09:54 -38.21185 146.12953 3306 ft 136 kts 103°
2026-04-17 09:54 -38.21207 146.14159 3172 ft 139 kts 88°
2026-04-17 09:55 -38.21041 146.15382 3043 ft 139 kts 85°
2026-04-17 09:55 -38.20867 146.16592 2914 ft 139 kts 85°
2026-04-17 09:55 -38.20694 146.17799 2789 ft 139 kts 84°
2026-04-17 09:55 -38.20492 146.18988 2662 ft 140 kts 74°
2026-04-17 09:56 -38.20095 146.20123 2533 ft 140 kts 68°
2026-04-17 09:56 -38.19675 146.21257 2401 ft 141 kts 67°
2026-04-17 09:56 -38.19262 146.22377 2265 ft 141 kts 67°
2026-04-17 09:56 -38.18867 146.23518 2142 ft 139 kts 78°
2026-04-17 09:57 -38.18813 146.24716 2018 ft 135 kts 96°
2026-04-17 09:57 -38.18805 146.25919 1885 ft 136 kts 95°
2026-04-17 09:57 -38.18825 146.27125 1763 ft 133 kts 107°
2026-04-17 09:57 -38.19233 146.28128 1642 ft 126 kts 132°
2026-04-17 09:58 -38.19722 146.29047 1499 ft 127 kts 131°
2026-04-17 09:58 -38.20206 146.29965 1479 ft 121 kts 129°
2026-04-17 09:58 -38.20673 146.30864 1488 ft 124 kts 130°
2026-04-17 09:58 -38.21153 146.31805 1480 ft 128 kts 127°
2026-04-17 09:59 -38.21604 146.32774 1474 ft 126 kts 126°
2026-04-17 09:59 -38.22050 146.33734 1483 ft 125 kts 126°
2026-04-17 09:59 -38.22490 146.34685 1483 ft 124 kts 126°
2026-04-17 09:59 -38.22928 146.35634 1484 ft 124 kts 126°
2026-04-17 10:00 -38.23341 146.36609 1483 ft 127 kts 118°
2026-04-17 10:00 -38.23614 146.37689 1486 ft 128 kts 111°
2026-04-17 10:00 -38.23869 146.38794 1488 ft 129 kts 111°
2026-04-17 10:00 -38.24121 146.39888 1491 ft 129 kts 112°
2026-04-17 10:01 -38.24304 146.41000 1479 ft 133 kts 93°
2026-04-17 10:01 -38.23988 146.42110 1476 ft 135 kts 56°
2026-04-17 10:01 -38.23428 146.43062 1482 ft 134 kts 51°
2026-04-17 10:01 -38.22853 146.43999 1486 ft 134 kts 51°
2026-04-17 10:02 -38.22276 146.44931 1487 ft 134 kts 50°
2026-04-17 10:02 -38.21692 146.45875 1485 ft 134 kts 51°
2026-04-17 10:02 -38.21119 146.46811 1487 ft 134 kts 54°
2026-04-17 10:02 -38.20880 146.47937 1484 ft 132 kts 93°
2026-04-17 10:03 -38.20890 146.49101 1487 ft 132 kts 94°
2026-04-17 10:03 -38.20894 146.50272 1487 ft 132 kts 93°
2026-04-17 10:03 -38.20890 146.51433 1492 ft 132 kts 93°
2026-04-17 10:03 -38.20885 146.52617 1487 ft 132 kts 93°
2026-04-17 10:04 -38.20875 146.53784 1481 ft 133 kts 94°
2026-04-17 10:04 -38.20867 146.54964 1482 ft 133 kts 93°
2026-04-17 10:04 -38.20858 146.56145 1482 ft 133 kts 94°
2026-04-17 10:04 -38.20849 146.57314 1482 ft 134 kts 94°
2026-04-17 10:05 -38.20839 146.58510 1480 ft 134 kts 94°
2026-04-17 10:05 -38.20831 146.59689 1478 ft 134 kts 94°
2026-04-17 10:05 -38.20821 146.60867 1482 ft 133 kts 94°
2026-04-17 10:05 -38.20771 146.62048 1479 ft 135 kts 82°
2026-04-17 10:06 -38.20516 146.63214 1486 ft 136 kts 76°
2026-04-17 10:06 -38.20248 146.64366 1484 ft 136 kts 75°
2026-04-17 10:06 -38.19983 146.65517 1486 ft 136 kts 75°
2026-04-17 10:06 -38.19712 146.66684 1485 ft 136 kts 75°
2026-04-17 10:07 -38.19402 146.67804 1482 ft 136 kts 66°
2026-04-17 10:07 -38.18992 146.68903 1483 ft 136 kts 65°
2026-04-17 10:07 -38.18584 146.69994 1484 ft 137 kts 65°
2026-04-17 10:07 -38.18177 146.71085 1483 ft 138 kts 65°
2026-04-17 10:08 -38.17759 146.72200 1482 ft 138 kts 65°
2026-04-17 10:08 -38.17346 146.73309 1485 ft 139 kts 65°
2026-04-17 10:08 -38.16933 146.74417 1482 ft 139 kts 65°
2026-04-17 10:08 -38.16516 146.75534 1486 ft 139 kts 65°
2026-04-17 10:09 -38.16105 146.76634 1488 ft 139 kts 66°
2026-04-17 10:09 -38.15688 146.77750 1490 ft 139 kts 65°
2026-04-17 10:09 -38.15264 146.78848 1489 ft 139 kts 60°
2026-04-17 10:09 -38.14688 146.79845 1486 ft 138 kts 51°
2026-04-17 10:10 -38.14099 146.80808 1468 ft 139 kts 51°
2026-04-17 10:10 -38.13510 146.81778 1390 ft 136 kts 51°
2026-04-17 10:10 -38.13091 146.82828 1318 ft 134 kts 69°
2026-04-17 10:11 -38.12408 146.85014 1162 ft 131 kts 69°
2026-04-17 10:11 -38.12071 146.86089 1087 ft 130 kts 69°
2026-04-17 10:11 -38.11732 146.87149 1094 ft 131 kts 68°
2026-04-17 10:11 -38.11387 146.88242 1101 ft 135 kts 68°
2026-04-17 10:12 -38.11109 146.89394 1102 ft 137 kts 76°
2026-04-17 10:12 -38.10844 146.90572 1099 ft 139 kts 77°
2026-04-17 10:12 -38.10649 146.91772 1091 ft 139 kts 83°
2026-04-17 10:12 -38.10647 146.92981 1094 ft 131 kts 99°
2026-04-17 10:13 -38.10743 146.94109 1093 ft 127 kts 99°
2026-04-17 10:13 -38.10840 146.95218 1095 ft 124 kts 103°
2026-04-17 10:13 -38.10952 146.96298 1096 ft 123 kts 98°
2026-04-17 10:13 -38.11039 146.97372 1098 ft 120 kts 101°
2026-04-17 10:14 -38.11127 146.98401 1093 ft 112 kts 104°
2026-04-17 10:14 -38.11294 146.99312 1017 ft 105 kts 110°
2026-04-17 10:14 -38.11218 147.00171 985 ft 99 kts 41°
2026-04-17 10:14 -38.10595 147.00499 855 ft 99 kts
2026-04-17 10:15 -38.09982 147.00662 843 ft 80 kts 347°
2026-04-17 10:15 -38.09611 147.00317 712 ft 70 kts 289°
2026-04-17 10:15 -38.09486 146.99771 573 ft 61 kts 275°
2026-04-17 10:15 -38.09414 146.99257 433 ft 59 kts 277°
2026-04-17 10:16 -38.09359 146.98746 314 ft 56 kts 272°
2026-04-17 10:16 -38.09311 146.98271 228 ft 52 kts 270°
2026-04-17 10:16 -38.09253 146.97810 153 ft 53 kts 274°
2026-04-17 10:16 -38.09192 146.97350 100 ft 51 kts 277°
2026-04-17 10:17 -38.09149 146.97023 94 ft 25 kts 279°
2026-04-17 10:17 -38.09125 146.96846 94 ft 11 kts 279°
2026-04-17 10:17 -38.09162 146.96783 94 ft 12 kts 197°
2026-04-17 10:17 -38.09217 146.96791 94 ft 8 kts 121°
2026-04-17 10:18 -38.09231 146.96878 94 ft 11 kts 99°
2026-04-17 10:18 -38.09244 146.96986 94 ft 12 kts 104°
2026-04-17 10:18 -38.09259 146.97087 94 ft 11 kts 99°
2026-04-17 10:18 -38.09281 146.97182 94 ft 10 kts 134°
2026-04-17 10:19 -38.09330 146.97171 94 ft 5 kts 247°
2026-04-17 10:19 -38.09327 146.97153 94 ft 0 kts